This demonstration page uses our WeatherBlox Daily Observations layout. Learn more.

Left ArrowRight Arrow

39.92423, -83.80882

Hourly Observations for February 5, 2022

Temp ( °F °C ) Dew Point ( °F °C ) Humidity (%) Winds ( mph kmh ) Pressure ( in mb ) Visibility ( mi km ) Precip ( " mm )
12:56 am 00:56 Cloudy with Light Snow 14 -10 12 -11.1 92 92 WSW 5 7 30.35 1028 7 11 0.00 0.00
1:31 am 01:31 Cloudy with Light Snow 14 -10 12 -11 92 92 WSW 8 13 30.40 1029 3 5 0.00 0.00
1:56 am 01:56 Cloudy with Light Snow 14 -10 13 -10.6 95 95 WSW 5 7 30.36 1028 3 5 0.00 0.00
2:56 am 02:56 Cloudy with Light Snow 14 -10 13 -10.6 95 95 W 8 13 30.37 1028 4 6 0.00 0.00
3:06 am 03:06 Mostly Cloudy with Light Snow 12 -11 12 -11 100 100 W 8 13 30.41 1030 8 13 0.00 0.00
3:56 am 03:56 Cloudy with Light Snow 15 -9.4 13 -10.6 91 91 W 9 15 30.38 1029 7 11 0.00 0.00
4:56 am 04:56 Cloudy with Light Snow 15 -9.4 14 -10 95 95 W 9 15 30.40 1029 9 14 0.00 0.00
5:22 am 05:22 Cloudy with Light Snow 16 -9 14 -10 93 93 W 10 17 30.44 1031 7 11 0.00 0.00
5:39 am 05:39 Cloudy with Light Snow 16 -9 12 -11 86 86 WNW 14 22 30.46 1031 9 14 0.00 0.00
5:56 am 05:56 Mostly Cloudy with Light Snow 13 -10.6 10 -12.2 88 88 W 15 24 30.43 1031 9 14 0.00 0.00
6:22 am 06:22 Mostly Cloudy 10 -12 9 -13 92 92 W 14 22 30.50 1033 10 16 0.00 0.00
6:52 am 06:52 Mostly Clear 10 -12 7 -14 85 85 WNW 13 20 30.51 1033 10 16 0.00 0.00
6:56 am 06:56 Mostly Clear 10 -12.2 6 -14.4 84 84 WNW 12 19 30.47 1032 10 16 0.00 0.00
7:56 am 07:56 Partly Cloudy with Isolated Snow Showers 6 -14.4 4 -15.6 91 91 W 8 13 30.51 1033 9 14 0.00 0.00
8:56 am 08:56 Mostly Cloudy 7 -13.9 5 -15 91 91 SW 3 6 30.54 1034 10 16 0.00 0.00
9:56 am 09:56 Mostly Cloudy with Light Snow 10 -12.2 6 -14.4 84 84 WSW 5 7 30.55 1035 7 11 0.00 0.00
10:03 am 10:03 Partly Cloudy with Scattered Snow Showers 10 -12 7 -14 85 85 W 7 11 30.58 1036 9 14 0.00 0.00
10:56 am 10:56 Sunny 13 -10.6 8 -13.3 81 81 SW 3 6 30.55 1034 10 16 0.00 0.00
11:56 am 11:56 Sunny 17 -8.3 10 -12.2 74 74 W 5 7 30.56 1035 10 16 0.00 0.00
12:56 pm 12:56 Sunny 17 -8.3 11 -11.7 77 77 Calm 30.53 1034 9 14 0.00 0.00
1:56 pm 13:56 Sunny 19 -7.2 12 -11.1 74 74 Calm 30.51 1033 10 16 0.00 0.00
2:56 pm 14:56 Sunny 20 -6.7 13 -10.6 74 74 Calm 30.52 1033 10 16 0.00 0.00
3:53 pm 15:53 Mostly Cloudy 21 -6 12 -11 68 68 WSW 3 6 30.54 1034 10 16 0.00 0.00
3:56 pm 15:56 Mostly Cloudy 21 -6.1 13 -10.6 71 71 Calm 30.52 1034 10 16 0.00 0.00
4:46 pm 16:46 Partly Cloudy 21 -6 12 -11 68 68 S 7 11 30.53 1034 10 16 0.00 0.00
4:56 pm 16:56 Sunny 21 -6.1 13 -10.6 71 71 S 6 9 30.50 1033 10 16 0.00 0.00
5:56 pm 17:56 Sunny 18 -7.8 14 -10 84 84 SSE 7 11 30.51 1033 10 16 0.00 0.00
6:56 pm 18:56 Clear 15 -9.4 12 -11.1 88 88 S 7 11 30.51 1033 10 16 0.00 0.00
7:56 pm 19:56 Clear 15 -9.4 12 -11.1 88 88 SSE 8 13 30.50 1033 10 16 0.00 0.00
8:56 pm 20:56 Clear 14 -10 12 -11.1 92 92 S 7 11 30.48 1032 10 16 0.00 0.00
9:56 pm 21:56 Clear 13 -10.6 12 -11.1 96 96 SSE 6 9 30.47 1032 10 16 0.00 0.00
10:56 pm 22:56 Clear 13 -10.6 12 -11.1 96 96 SSE 6 9 30.46 1032 10 16 0.00 0.00
11:56 pm 23:56 Clear 9 -12.8 9 -12.8 100 100 SE 6 9 30.45 1031 9 14 0.00 0.00

Powered by AerisWeather